GFSCGP_sfc_rhum_000.txt.gz
RH
26 29 31 22 21 17 22 20 19 17 19 24 25 25 23 28 32 33 30 26 26 25 26 25 24 21 22 23 22 23 25 25 29 36 39 40 43 38 42 41 36 36 41 42
27 32 21 17 19 19 19 21 20 18 22 26 28 26 21 19 30 32 30 28 26 26 25 27 27 23 22 22 22 23 24 27 31 38 40 40 37 41 41 46 40 39 37 40
25 22 16 18 23 21 24 22 20 19 26 24 28 32 25 19 16 25 28 27 25 25 25 27 29 26 26 24 25 23 24 26 33 32 39 42 43 47 48 45 47 44 35 38
21 16 18 22 18 18 24 20 18 24 28 34 26 38 24 18 22 17 20 28 27 26 26 26 28 27 25 26 26 26 26 24 28 33 38 41 49 51 47 47 45 42 36 35
25 24 24 24 19 16 25 30 30 28 31 32 28 39 28 20 24 20 18 20 27 27 27 29 29 27 21 25 29 28 27 26 28 29 38 47 48 49 48 45 41 40 39 37
20 21 20 19 18 21 26 31 38 37 40 51 28 29 28 22 18 19 18 19 25 28 27 30 30 30 25 29 35 36 32 30 32 35 36 41 44 46 46 47 47 48 46 47
23 21 20 18 28 33 32 36 49 60 64 53 23 24 20 18 18 17 19 23 26 29 31 34 31 33 31 35 40 39 40 41 35 36 35 33 40 42 43 42 46 45 47 49
27 29 23 19 24 31 34 31 39 43 44 34 29 39 24 16 19 19 21 23 28 32 33 34 31 34 33 33 38 38 38 41 35 32 32 32 32 47 44 41 44 46 48 48
24 23 17 18 19 20 32 40 28 33 27 35 28 22 17 14 21 22 22 24 34 34 34 33 32 33 34 32 34 36 39 38 34 32 31 26 26 31 42 39 39 46 44 41
22 26 20 22 22 23 25 30 42 42 43 40 26 24 28 19 20 21 23 28 32 35 33 31 30 32 32 31 32 33 33 34 34 32 27 24 28 28 33 38 40 41 42 45
22 27 32 34 34 31 36 38 34 34 31 37 31 30 16 16 15 19 20 23 31 36 32 30 28 29 33 32 33 31 30 30 29 28 27 28 30 29 29 32 36 39 43 41
21 31 34 35 27 24 26 28 29 34 34 30 28 28 17 21 13 14 17 21 29 34 36 32 29 29 30 32 30 29 28 28 29 29 26 28 29 31 33 33 32 34 36 38
30 35 43 35 38 36 34 27 24 26 29 31 33 28 17 18 19 18 18 22 25 31 36 34 32 28 27 27 28 27 28 28 28 24 26 30 32 33 35 35 34 33 35 35
51 36 35 43 35 35 40 32 28 28 34 31 32 27 23 23 20 22 24 23 24 27 31 34 34 28 26 25 24 25 25 28 28 26 29 32 34 34 38 38 37 36 36 35
44 43 33 31 27 27 28 31 31 33 31 35 28 27 22 21 25 20 21 23 23 25 29 30 34 31 29 27 23 23 24 23 23 25 30 34 34 35 36 37 39 38 38 36
75 79 53 39 29 28 30 27 29 31 29 29 28 30 21 22 22 23 20 20 22 23 26 28 30 30 29 24 26 24 26 24 24 27 29 31 35 33 38 40 41 40 42 44
93 97 94 90 40 34 40 32 30 30 28 29 35 29 27 26 24 22 26 24 23 24 26 29 29 30 30 28 24 26 24 23 24 25 25 28 29 34 37 38 38 43 47 46
84 90 97 96 82 75 37 26 26 31 28 29 28 27 27 29 31 28 27 30 24 26 27 30 31 34 35 33 28 24 22 23 24 25 27 28 30 33 37 40 45 48 46 48
75 84 94 99 97 73 39 34 35 37 39 32 30 29 27 26 34 35 24 24 27 27 27 30 35 38 39 32 28 28 28 29 28 30 30 29 31 36 42 48 51 52 52 51
64 78 96 98 100 98 63 34 30 34 50 36 35 32 31 33 45 38 32 27 26 25 31 34 33 33 31 30 28 33 34 33 34 33 32 30 34 41 46 49 52 52 52 44
67 91 96 92 93 95 60 36 37 46 46 41 38 30 32 40 38 37 29 31 28 33 34 34 31 28 29 29 31 35 36 37 34 32 31 35 38 44 45 49 52 51 50 48
70 81 87 89 92 93 77 68 71 78 51 43 41 38 42 49 42 36 34 36 37 37 34 30 31 29 28 28 30 33 36 34 33 33 36 39 42 39 35 47 52 50 51 57
80 84 96 98 94 81 66 83 76 64 62 45 48 51 48 48 40 39 43 40 36 32 31 32 33 33 30 29 30 32 36 32 33 35 40 43 41 40 40 46 48 50 54 63
50 51 87 94 64 68 63 48 52 70 74 57 44 46 47 48 42 39 41 40 36 32 32 33 34 34 34 32 31 32 31 32 34 38 41 43 45 44 45 45 46 52 57 69
59 59 60 57 48 51 56 60 58 63 71 62 50 44 50 52 44 40 39 37 35 34 35 34 34 34 36 35 32 31 32 35 39 42 42 44 45 46 49 48 50 48 61 65
62 72 79 75 52 52 47 45 51 67 65 58 55 53 47 46 47 40 38 36 34 33 36 36 35 37 34 31 32 32 37 39 42 44 47 49 51 54 56 58 57 56 61 62

GFSCGP_sfc_rhum_003.txt.gz
RH
34 38 46 37 33 30 27 27 27 23 24 28 33 31 31 38 38 39 39 36 33 34 31 30 28 27 28 27 26 27 29 29 36 40 42 43 45 44 45 45 39 36 42 43
39 46 33 29 28 27 26 28 28 25 28 26 32 31 27 32 37 35 34 33 32 32 38 30 28 26 28 27 27 27 28 31 36 42 44 44 44 46 45 51 43 40 41 40
42 32 25 26 28 26 26 29 31 26 29 28 31 38 33 26 26 30 32 30 29 31 34 32 30 25 27 28 28 27 29 31 38 37 44 46 48 50 51 49 47 48 42 41
34 24 22 27 25 25 31 28 28 27 32 38 32 36 32 23 22 23 32 34 32 30 30 33 30 27 25 26 28 27 30 32 35 38 44 44 51 53 53 49 51 46 40 38
33 27 29 29 24 21 28 28 31 34 36 53 39 46 38 27 26 23 23 33 33 29 31 34 32 29 25 24 27 30 31 31 34 38 45 50 51 55 52 51 44 44 43 42
32 26 26 24 25 25 30 32 35 42 47 59 39 40 20 28 20 21 24 25 32 31 30 32 32 30 27 25 29 34 32 33 34 40 42 46 49 51 53 50 50 53 52 51
34 30 25 22 32 36 34 39 52 62 74 55 31 38 21 23 20 18 19 25 32 31 32 39 35 33 29 30 33 36 37 39 39 39 40 42 45 45 44 45 50 50 51 52
43 37 29 24 25 34 40 34 51 56 70 38 42 46 29 20 14 18 20 26 36 37 32 37 36 34 29 27 34 33 39 41 40 38 41 38 36 49 51 48 51 50 51 53
39 37 28 24 26 24 41 42 27 40 41 50 38 32 24 22 24 26 27 34 37 38 37 39 37 37 32 29 33 34 38 40 41 38 38 34 35 36 49 46 46 50 49 48
32 33 23 27 27 30 36 35 47 52 57 58 39 37 30 19 14 25 30 34 39 40 42 40 36 38 36 32 36 35 36 39 40 39 35 32 31 31 36 41 42 46 49 48
27 37 32 38 40 32 43 39 45 42 51 47 40 37 24 17 20 26 25 30 38 39 39 38 36 37 40 36 35 36 37 38 39 36 36 32 32 32 33 36 39 42 45 47
30 32 36 31 37 30 27 28 30 46 52 42 31 28 19 15 20 23 24 25 34 40 42 39 38 39 39 37 37 34 36 36 36 36 34 33 33 34 36 37 37 40 42 46
73 54 45 36 43 46 44 33 33 29 41 35 37 29 20 16 17 22 23 24 29 38 44 41 39 35 36 36 35 35 34 33 33 33 33 34 34 35 36 38 39 39 42 43
65 64 56 50 36 41 50 42 34 36 42 37 35 28 25 23 22 21 23 25 28 33 37 40 36 33 33 33 32 31 31 30 34 32 33 34 34 36 38 39 42 42 42 44
78 96 88 81 72 66 49 34 37 38 33 37 30 30 25 22 24 21 23 25 30 34 39 38 37 35 33 32 30 28 28 30 32 30 34 35 36 38 38 42 43 42 43 42
71 95 89 78 73 80 83 68 61 33 31 32 29 29 27 24 28 29 23 20 26 28 32 34 33 33 31 28 28 26 27 29 29 31 33 35 37 37 40 41 42 45 49 49
84 83 86 85 64 78 88 68 59 49 29 30 37 29 28 25 24 22 26 24 24 24 28 32 33 33 29 28 25 26 27 27 26 29 31 32 36 38 39 40 44 47 50 53
84 80 86 94 78 96 49 58 56 54 44 32 28 27 33 28 26 29 31 33 25 22 27 28 32 34 33 33 29 28 27 25 28 30 30 31 32 35 37 43 48 53 54 54
61 82 92 97 89 69 56 53 53 88 86 48 40 31 35 34 38 34 32 31 28 30 32 32 34 40 39 34 31 29 30 30 30 31 32 32 34 37 43 48 52 53 58 58
65 75 92 82 98 93 54 63 64 69 93 87 80 55 46 44 50 34 31 28 32 32 36 41 42 39 37 35 29 30 33 34 34 35 34 33 36 41 46 50 53 56 58 54
78 89 91 88 87 80 55 48 64 85 99 88 82 73 67 61 44 32 38 32 32 34 40 40 38 37 34 32 31 35 38 38 37 37 37 39 41 45 48 51 55 57 56 53
88 93 95 95 97 92 74 75 87 96 88 88 83 78 69 65 52 45 44 36 38 42 42 37 37 36 31 32 30 38 40 39 39 39 39 40 44 41 38 50 54 54 56 58
86 73 77 87 70 54 41 50 72 85 77 77 81 82 74 65 52 45 49 44 39 39 37 34 34 34 34 34 32 38 39 39 39 40 42 44 43 45 45 50 50 55 56 63
68 64 80 80 52 59 56 46 42 56 71 56 80 86 89 62 54 43 47 43 36 36 36 32 31 32 36 35 33 35 38 38 38 40 44 46 49 50 50 50 52 56 59 69
66 73 70 72 55 48 47 53 54 56 54 48 61 83 96 88 66 40 42 43 41 39 39 32 31 32 34 37 36 36 37 38 39 42 45 48 50 52 54 54 54 53 56 67
63 67 81 66 43 54 50 43 40 41 41 42 48 57 83 93 86 62 46 45 43 41 37 36 35 34 35 36 36 39 42 40 41 43 48 53 56 60 62 65 64 59 63 64

GFSCGP_sfc_rhum_006.txt.gz
RH
38 41 48 42 37 31 28 33 30 28 24 34 35 31 28 32 47 44 44 41 40 35 30 35 34 34 32 29 32 35 34 33 40 45 45 45 45 46 48 48 43 38 44 44
45 49 29 34 36 36 33 33 32 30 25 31 35 35 29 37 43 40 38 39 37 34 36 37 34 33 31 28 28 33 32 35 38 44 47 46 46 47 46 52 50 44 43 44
49 37 33 33 37 36 35 31 34 29 30 32 36 37 35 32 31 31 33 32 33 33 32 36 34 32 30 28 28 28 32 34 41 42 50 51 52 52 53 53 49 47 45 45
43 31 30 38 34 31 34 31 28 30 34 40 34 34 34 31 29 33 30 29 34 32 29 33 34 31 29 27 28 28 31 34 39 45 48 47 53 51 54 51 52 48 43 41
38 33 39 36 29 27 30 32 32 33 38 53 38 46 50 32 28 22 22 23 30 31 30 34 34 29 26 26 28 28 31 35 38 42 48 52 54 56 55 54 50 47 45 46
35 31 30 30 26 26 29 36 44 55 52 57 36 38 23 26 22 18 15 19 24 34 33 32 32 29 26 26 28 32 33 34 40 43 48 51 50 54 59 56 55 54 55 55
32 26 28 24 30 38 36 40 53 56 67 50 35 41 24 21 21 20 16 17 29 36 35 37 38 33 30 30 30 33 35 38 39 42 45 48 50 50 51 50 53 53 55 55
43 30 34 27 25 31 42 35 52 55 56 32 43 45 24 24 15 13 18 21 29 43 35 39 38 36 32 29 30 30 34 35 38 40 44 46 48 56 54 51 56 56 57 52
42 43 30 28 23 26 35 46 30 35 45 52 47 40 23 27 24 25 25 25 33 42 38 39 38 37 33 30 29 30 34 34 37 38 41 44 42 45 52 51 53 55 53 49
38 40 27 24 32 34 31 34 48 56 52 52 37 40 29 25 17 18 27 31 32 44 43 42 41 38 34 30 29 30 32 34 37 38 38 37 37 38 42 46 48 51 51 53
42 44 41 39 39 37 45 41 47 47 51 43 39 31 28 19 18 19 20 26 30 41 42 42 41 39 35 30 31 33 34 35 39 38 39 39 38 34 36 40 42 44 47 47
72 84 68 45 30 28 27 29 30 42 44 56 34 31 22 22 21 22 18 24 38 44 47 45 44 45 42 35 36 36 36 36 37 40 39 37 37 36 36 37 38 42 43 46
76 89 95 73 53 49 52 44 38 34 34 39 44 35 23 21 20 20 25 27 32 38 50 50 49 44 42 39 38 36 36 37 39 39 40 39 37 38 38 38 38 40 42 45
74 88 92 97 98 96 92 84 75 79 54 41 39 33 26 26 26 24 24 26 27 33 41 45 46 41 40 39 38 37 38 38 40 40 39 38 36 37 39 39 40 41 43 45
76 94 78 83 66 64 70 70 76 94 84 91 75 55 28 24 23 22 22 25 30 34 44 46 44 41 40 41 39 38 38 38 38 37 38 35 35 38 40 42 43 43 45 44
85 81 68 78 64 62 61 60 65 77 61 68 61 62 35 25 26 24 22 22 25 29 33 38 39 39 37 37 38 36 36 36 34 33 34 35 37 40 42 43 43 44 48 52
71 81 88 79 55 54 69 54 60 49 44 58 85 86 59 64 55 31 28 26 21 20 27 34 38 38 35 34 33 34 33 32 31 31 32 34 37 41 43 42 44 48 52 55
78 79 82 86 72 92 50 38 40 46 42 67 83 83 84 84 72 60 37 23 26 24 24 29 33 35 36 35 34 33 30 30 31 31 32 32 37 41 42 42 47 52 56 55
73 85 98 97 94 69 59 44 66 83 85 71 83 88 80 80 80 62 41 50 38 28 25 24 28 36 40 35 33 32 32 31 30 31 30 33 36 39 42 47 52 56 58 57
53 70 90 90 98 91 42 50 56 70 87 84 84 81 87 85 96 85 64 61 59 45 31 30 36 44 37 35 31 33 34 32 30 31 31 33 37 40 47 51 54 56 57 55
90 91 95 95 95 86 67 64 63 72 79 82 72 68 79 92 91 81 76 70 47 38 42 46 44 40 37 34 32 34 34 31 30 34 35 39 41 45 48 52 56 56 58 60
96 92 86 85 96 86 74 45 66 65 72 78 67 60 79 86 85 84 80 67 49 48 52 46 46 43 35 32 30 35 32 38 36 38 42 43 46 41 44 53 55 57 60 63
87 80 79 88 74 60 53 50 56 59 54 66 65 64 79 80 87 90 85 73 44 46 45 45 41 40 36 33 31 33 42 38 40 43 44 45 46 48 49 54 55 58 59 64
74 66 84 98 68 54 46 43 44 46 61 60 58 60 76 78 84 87 81 78 48 42 43 41 38 36 38 37 32 34 38 39 38 41 44 49 51 51 52 51 54 59 62 66
73 73 67 71 58 51 48 46 50 53 51 48 48 49 53 72 86 80 86 83 71 39 40 37 36 35 38 36 35 35 38 37 36 40 44 48 50 56 54 55 57 56 60 62
68 68 80 76 55 53 49 44 45 53 52 43 44 45 52 65 77 80 86 83 81 40 39 40 37 37 37 33 34 38 40 36 37 40 48 50 54 56 60 64 65 58 63 61

GFSCGP_sfc_rhum_009.txt.gz
RH
42 44 47 42 39 32 30 36 32 30 26 38 40 34 28 29 51 48 49 45 43 37 30 33 35 38 38 33 32 32 37 41 41 50 51 52 50 50 52 52 46 42 46 48
48 53 34 37 40 40 41 38 37 32 28 35 35 35 31 28 42 34 38 42 41 39 35 38 37 39 35 31 29 32 32 38 38 43 49 46 48 49 48 54 51 48 45 47
51 36 37 36 37 41 39 39 37 29 28 36 41 35 38 34 32 34 36 31 32 37 37 36 37 37 35 31 28 30 31 34 38 43 53 55 55 56 57 58 55 49 46 49
47 32 32 40 41 38 36 36 34 34 41 43 38 35 30 33 32 34 30 30 35 35 33 32 35 36 34 30 27 27 31 32 36 44 49 50 55 53 55 54 53 50 47 44
38 38 39 46 32 35 41 33 40 42 45 53 43 44 47 36 31 26 22 28 27 28 33 33 32 33 32 30 27 27 31 32 34 41 44 48 55 54 57 56 51 50 48 46
31 31 33 34 31 32 34 38 46 60 55 56 36 40 26 20 24 22 20 20 22 22 28 32 30 33 34 31 29 30 33 34 38 43 47 48 49 55 59 59 58 57 56 56
34 33 33 25 32 38 37 42 59 58 70 46 35 42 24 22 24 23 19 16 17 23 32 37 38 38 37 34 33 32 34 38 40 42 45 48 47 52 52 55 58 59 58 59
45 39 32 29 28 34 42 35 46 59 54 32 47 49 24 24 21 19 18 18 17 22 42 42 39 38 35 33 33 33 34 37 39 40 45 47 48 53 56 53 59 58 59 54
44 45 31 29 28 30 38 50 32 40 30 48 31 35 27 29 30 27 27 25 25 21 45 43 45 40 35 32 31 32 35 35 38 37 42 45 46 54 55 55 54 58 57 52
54 55 36 33 34 36 34 36 48 59 55 52 38 42 32 26 22 20 24 25 27 29 42 48 46 42 37 31 30 30 32 34 36 37 39 40 41 45 49 52 55 56 55 54
82 74 64 49 49 45 42 48 48 46 52 47 46 37 26 22 19 19 20 21 24 26 37 48 49 46 40 34 32 31 33 33 36 36 38 38 41 40 43 46 49 52 52 52
75 89 89 71 48 41 38 39 53 58 60 59 42 38 25 26 23 23 23 22 24 33 38 49 52 49 44 38 35 33 33 33 35 37 38 40 39 39 39 42 43 46 47 50
77 88 95 66 61 74 88 66 64 81 92 96 80 55 33 45 52 46 34 23 23 29 42 53 55 50 43 37 35 35 35 34 36 37 39 40 41 39 38 38 40 42 44 45
61 87 88 92 80 70 72 61 57 73 96 83 85 78 55 49 53 57 52 36 22 28 38 52 56 51 47 39 36 37 37 35 39 40 40 41 40 38 38 37 41 42 44 44
76 81 66 59 54 54 57 68 67 71 76 91 60 44 40 39 56 69 66 63 62 41 25 44 50 49 47 46 41 38 38 38 40 40 42 42 40 38 40 43 44 43 45 44
76 81 68 75 58 57 62 53 53 66 54 52 58 78 59 54 73 74 74 71 64 53 45 27 38 43 45 45 43 39 40 40 40 40 42 43 42 39 40 43 45 46 48 49
70 79 84 87 63 63 75 56 49 47 43 45 67 68 81 84 77 73 73 70 61 66 61 61 40 40 40 41 40 42 41 40 40 40 41 41 39 39 40 42 47 48 50 54
73 76 87 90 82 95 60 44 51 57 47 56 71 92 86 73 73 67 58 60 65 70 74 70 64 46 42 41 41 41 41 40 40 39 39 37 36 37 41 46 48 50 55 57
67 87 94 92 80 63 54 49 59 66 68 90 87 66 67 64 77 58 51 62 72 77 72 67 58 52 39 44 41 40 41 40 38 38 36 35 35 38 43 48 50 55 59 59
66 84 94 82 95 94 57 47 57 59 83 64 45 66 64 76 96 67 57 68 75 72 70 64 45 40 39 43 40 40 41 40 38 36 34 33 34 38 43 48 54 59 59 54
80 93 96 92 95 70 52 60 67 75 78 52 54 63 65 84 78 65 68 77 74 70 70 60 46 42 39 40 38 41 39 38 35 34 35 36 36 39 42 52 59 58 58 60
90 96 86 90 98 86 67 51 63 61 61 55 59 55 69 71 68 70 71 79 82 77 73 55 53 50 41 35 36 41 38 39 36 36 37 38 41 34 43 54 58 58 61 64
90 74 77 89 76 55 45 54 55 58 64 57 57 63 58 59 60 66 65 89 81 80 74 52 50 44 40 35 35 36 44 37 37 36 39 41 43 45 51 55 56 60 63 66
78 65 88 92 68 58 56 49 49 49 56 56 54 53 57 62 58 51 52 83 83 82 82 46 43 41 40 38 34 40 37 36 33 37 43 47 46 52 52 50 52 58 63 68
67 70 72 82 74 65 56 56 56 51 51 52 51 55 56 56 56 56 62 80 85 89 85 57 57 42 41 40 39 36 35 34 36 38 43 46 47 51 50 54 56 58 58 60
72 74 89 90 56 63 58 51 50 54 55 52 54 54 53 54 56 52 55 76 90 91 90 76 48 61 41 36 37 40 38 34 35 38 41 45 50 57 56 57 61 60 61 65

GFSCGP_sfc_rhum_012.txt.gz
RH
45 45 42 46 44 41 35 39 36 30 28 41 43 38 31 26 48 43 42 45 45 40 32 33 36 37 47 44 35 32 40 43 45 50 52 58 56 56 56 56 49 46 52 53
49 49 35 37 43 44 45 46 41 35 32 38 39 32 27 26 34 31 32 35 38 38 36 40 38 39 41 40 34 31 34 42 41 41 54 50 52 53 54 58 54 51 48 52
45 26 39 39 43 42 42 46 39 37 34 35 40 31 27 33 31 38 34 28 26 33 36 35 39 39 37 38 36 32 31 38 39 42 52 59 58 59 58 60 59 57 49 52
48 41 38 43 42 39 43 36 35 38 46 42 40 35 27 28 26 34 35 33 32 30 31 32 36 40 38 35 33 31 30 35 38 44 43 48 53 56 58 60 60 57 50 52
34 42 42 46 42 38 43 39 43 47 54 57 47 49 24 32 31 27 24 27 31 29 31 34 35 35 36 33 33 31 31 34 35 41 41 43 56 53 59 59 54 55 54 49
36 35 34 36 34 36 38 43 48 65 57 63 39 45 26 26 25 23 21 20 21 22 28 33 34 33 36 36 34 33 33 33 35 39 41 41 43 52 59 60 57 60 58 57
36 33 37 33 38 36 40 46 63 61 74 54 36 43 24 24 27 23 20 18 17 20 25 33 42 40 39 41 37 34 35 37 36 39 42 41 42 46 46 51 53 62 62 63
49 47 34 33 36 34 48 45 59 60 64 47 46 49 26 27 26 26 23 23 23 22 22 31 36 43 41 41 37 35 36 37 38 38 43 42 45 49 50 52 62 59 59 57
68 52 43 40 36 34 45 54 40 43 36 48 37 34 24 23 25 28 25 26 27 25 25 38 43 49 47 41 38 35 36 35 37 37 41 42 45 52 54 57 55 60 58 53
82 90 56 49 46 42 42 40 52 59 63 61 46 48 39 28 25 31 44 40 36 30 24 27 47 51 46 40 38 36 34 34 37 38 38 40 41 45 50 54 54 57 58 56
91 95 69 68 68 73 64 59 53 51 47 72 92 61 41 63 56 48 44 38 47 46 39 29 32 54 51 41 37 37 36 35 38 37 38 40 43 46 49 49 51 53 57 57
82 98 83 63 47 56 61 66 70 97 92 90 93 76 52 46 36 31 31 42 49 50 52 44 46 56 54 42 38 37 36 36 38 37 39 42 42 44 47 47 48 53 53 57
67 87 88 57 48 64 70 58 55 67 97 94 97 80 40 41 30 29 26 61 62 60 57 52 45 55 56 49 42 37 36 36 37 38 39 42 43 43 41 42 44 47 49 50
61 84 82 87 77 68 71 58 50 55 77 63 64 66 48 40 42 36 47 68 66 57 56 54 58 52 57 52 45 40 37 36 40 39 40 43 43 41 40 40 42 43 44 47
68 84 69 62 58 59 62 62 59 64 62 74 64 59 47 45 41 44 64 68 59 52 57 58 63 66 58 57 46 40 39 38 39 39 41 42 42 39 40 43 42 41 46 44
74 82 71 81 62 58 64 58 57 57 56 55 52 55 49 77 75 62 52 56 60 60 60 60 66 70 68 56 50 41 41 40 40 39 41 41 42 41 42 42 42 44 48 48
81 86 93 82 64 72 80 53 56 52 56 51 71 91 82 82 73 70 60 62 63 62 62 68 73 71 65 65 50 47 41 38 41 39 40 42 41 42 43 42 43 46 49 53
82 81 85 91 88 88 37 35 39 48 44 62 80 67 63 75 72 63 55 63 63 59 66 71 72 70 67 61 58 46 43 42 42 41 43 43 42 42 42 42 42 50 52 53
70 88 98 97 91 64 55 56 63 61 69 69 80 57 49 49 55 58 56 56 57 59 66 72 69 68 67 55 45 49 48 45 43 42 43 42 41 43 43 43 45 52 56 60
81 83 91 86 95 95 45 36 39 73 80 70 62 59 57 60 82 60 49 49 55 59 69 76 69 68 67 43 45 47 51 48 45 42 42 39 39 41 43 43 48 59 59 56
74 89 93 91 94 80 54 50 77 82 82 65 62 62 63 72 68 60 53 47 47 55 68 74 72 71 54 39 46 49 47 48 43 41 41 40 40 41 40 45 51 56 58 58
91 95 88 91 96 88 58 52 65 63 60 62 62 62 63 58 58 57 54 54 54 50 61 75 77 72 42 40 45 52 47 42 43 41 41 41 41 35 40 45 54 57 60 60
91 75 80 85 75 58 47 54 55 62 64 64 66 59 58 61 60 60 61 54 53 53 80 78 86 71 43 42 45 47 48 42 41 40 41 41 37 40 43 48 56 61 63 66
73 66 87 84 61 62 54 50 56 59 61 57 57 59 61 66 62 62 59 59 58 54 84 82 86 80 44 44 40 43 43 41 39 40 40 39 41 46 43 46 48 55 62 67
69 72 71 81 72 65 64 63 64 65 56 57 56 59 62 64 63 62 63 62 57 59 86 88 90 89 51 44 42 40 40 38 38 39 38 40 46 43 47 48 48 49 56 56
66 72 86 89 63 74 70 64 62 62 62 58 60 64 63 66 66 63 66 62 64 63 80 83 89 91 65 43 46 43 40 36 37 39 40 46 47 47 49 52 64 54 58 61

GFSCGP_sfc_rhum_015.txt.gz
RH
39 34 32 35 40 32 29 30 31 27 24 27 26 26 25 23 29 32 28 23 24 24 22 24 28 29 31 34 33 32 36 34 36 39 37 37 38 36 39 38 34 39 42 41
38 39 28 31 37 40 38 38 36 34 31 31 32 29 24 24 22 21 24 22 21 20 22 25 28 30 30 32 34 30 32 36 35 38 34 30 31 34 34 44 40 40 41 40
31 23 38 35 37 39 39 36 34 29 29 30 34 27 25 24 23 22 24 23 20 21 20 21 29 31 34 33 35 32 30 34 36 35 40 42 38 42 42 43 43 43 38 41
41 36 34 39 39 35 41 33 30 33 36 34 29 29 23 17 17 26 26 27 26 26 24 25 27 34 32 35 35 32 31 30 34 38 39 38 38 38 37 38 42 42 36 37
29 36 40 43 37 36 37 34 38 40 41 42 36 37 17 21 21 18 16 18 25 26 25 23 26 31 30 32 34 34 31 31 34 36 39 40 38 35 38 40 41 39 40 37
34 33 31 30 32 36 35 35 40 54 47 52 31 33 23 19 19 19 16 18 19 18 20 23 25 30 32 36 39 40 34 33 36 40 38 42 40 39 41 41 40 41 41 41
37 32 33 32 32 34 34 41 47 44 55 46 34 34 23 19 17 18 18 20 27 30 29 28 25 27 33 43 45 42 40 39 36 39 38 38 41 38 37 39 38 43 42 42
54 46 32 38 40 42 39 39 43 48 40 35 32 39 24 20 22 32 36 36 35 36 34 35 33 34 32 37 43 42 38 38 35 37 38 35 39 39 35 38 39 38 40 38
84 66 46 39 43 36 40 44 38 45 44 50 39 31 24 20 32 35 30 25 27 32 35 39 40 36 34 36 38 39 37 36 35 35 34 32 34 37 40 40 38 40 37 38
77 72 57 54 43 40 52 46 58 53 67 61 44 41 40 34 48 38 31 26 24 34 41 45 44 42 35 37 38 35 32 33 34 34 32 33 33 34 38 39 39 42 39 38
73 86 52 47 44 56 46 44 38 54 55 77 74 56 51 44 42 29 21 27 30 42 46 47 44 42 39 41 38 35 33 32 33 32 33 34 35 33 34 35 37 40 40 40
59 84 71 49 38 36 41 60 47 72 66 69 79 74 36 38 24 23 31 28 30 34 42 48 44 45 45 44 40 36 34 33 34 35 33 34 35 36 35 34 33 34 38 41
58 69 69 30 35 37 42 42 42 52 72 72 68 44 22 26 28 29 36 38 36 46 51 45 43 49 52 52 46 37 34 35 33 34 34 35 37 37 34 32 33 33 33 36
57 76 72 67 60 66 67 58 55 60 80 70 62 55 44 41 42 62 62 61 50 49 47 48 51 49 54 57 53 45 36 32 36 36 36 39 37 38 36 34 35 34 32 33
68 84 66 62 58 59 63 66 61 62 61 78 65 61 52 55 76 58 52 50 50 50 50 51 51 49 53 59 53 53 43 35 33 36 38 39 37 37 36 38 36 32 32 30
68 79 70 80 60 56 60 56 56 56 51 50 52 62 59 71 57 51 50 49 54 54 52 52 48 48 54 56 57 58 54 40 33 35 36 40 39 38 39 38 35 35 36 32
78 78 80 88 59 62 78 55 39 35 37 43 65 60 67 72 55 47 49 52 55 55 52 50 45 48 54 58 57 59 56 45 37 34 34 37 39 40 39 37 36 40 39 33
80 86 79 84 80 84 45 34 36 46 44 45 51 78 66 61 54 48 45 43 52 46 46 46 46 48 54 61 58 57 56 42 42 37 35 36 37 39 38 37 38 37 35 37
77 85 94 95 78 59 50 40 40 50 63 54 71 60 56 55 58 51 40 40 44 46 45 43 42 48 57 62 59 59 48 41 44 41 36 37 37 39 40 41 40 36 37 38
75 75 85 78 93 92 42 35 40 55 76 63 59 63 62 63 83 59 45 46 47 45 45 47 46 43 57 64 62 53 42 41 45 42 39 36 36 38 41 42 42 40 37 39
71 78 91 82 90 74 50 45 60 75 68 58 64 65 65 74 67 55 50 49 48 49 50 47 48 55 67 68 62 50 41 40 43 41 39 40 39 39 38 42 40 41 38 40
80 87 86 83 93 88 50 47 67 61 59 59 64 64 67 64 61 58 56 56 56 55 52 50 53 68 69 69 57 40 40 40 47 44 42 41 39 36 38 43 42 38 42 42
84 70 79 82 79 56 45 46 52 60 62 64 66 66 63 65 64 62 62 58 56 54 53 50 60 76 70 71 50 42 40 44 52 45 45 42 39 36 39 40 43 42 41 44
68 61 89 89 60 56 52 50 53 59 64 65 66 64 63 67 64 64 62 60 59 56 56 56 65 78 81 78 46 41 42 45 44 44 42 42 40 41 37 38 36 42 44 46
61 63 79 82 66 62 66 64 68 66 59 58 56 59 63 66 68 64 65 63 60 59 60 63 70 84 85 75 54 44 41 41 40 39 39 40 42 38 38 37 38 38 38 42
66 69 84 84 74 87 85 77 72 62 59 55 57 62 64 66 66 62 65 63 62 61 63 67 71 86 86 77 68 60 42 38 38 37 39 41 40 40 43 45 48 53 54 57

GFSCGP_sfc_rhum_018.txt.gz
RH
26 18 14 10 14 13 15 15 16 14 12 16 18 16 14 12 12 13 13 12 8 6 6 7 10 13 17 19 20 24 33 36 34 35 33 31 32 28 27 26 25 26 28 30
21 18 19 19 19 23 20 18 17 13 12 16 16 17 16 14 14 13 12 11 10 10 9 9 8 13 16 17 19 21 26 35 34 36 33 30 28 27 28 30 28 29 29 30
19 17 23 20 19 23 20 22 18 17 17 17 19 19 12 11 13 12 12 12 12 12 12 11 12 13 18 19 20 21 22 29 35 34 34 31 28 29 31 32 31 30 30 30
22 22 24 24 23 21 25 20 22 26 27 23 20 23 15 11 12 10 10 10 12 16 15 17 18 17 16 20 22 20 22 22 30 35 36 36 35 38 33 32 32 30 28 29
18 20 22 26 22 24 22 28 26 27 28 27 25 30 12 10 14 13 14 20 23 23 23 21 21 23 21 22 21 22 22 23 25 29 38 40 37 34 30 28 32 30 30 27
23 20 23 22 22 24 23 26 26 31 32 34 18 24 16 13 14 14 19 22 20 17 19 20 21 23 23 27 30 28 26 26 27 33 36 42 41 32 30 30 32 32 30 29
24 25 22 25 28 27 28 30 27 26 35 26 22 23 16 13 18 25 24 21 18 17 18 21 24 27 28 31 33 29 31 33 28 29 33 36 40 34 30 32 32 33 31 32
43 26 26 33 35 37 34 33 30 33 20 21 20 29 16 12 14 23 24 21 16 15 17 20 25 29 29 30 31 32 29 31 31 28 31 32 35 35 30 31 30 30 31 31
48 42 29 24 33 34 32 37 38 47 35 35 26 20 14 12 19 20 20 21 17 18 20 20 21 26 29 29 31 33 30 30 30 28 27 29 28 33 33 30 28 30 28 29
45 38 22 38 25 31 22 22 28 23 26 26 17 21 21 25 21 15 16 17 20 23 24 22 27 30 28 30 33 33 30 28 28 28 27 28 28 27 30 28 28 31 29 30
29 33 29 21 18 19 21 27 34 40 34 41 47 33 20 19 11 11 17 24 29 31 33 32 30 30 32 34 33 35 34 29 27 27 28 29 28 26 26 27 27 30 30 30
32 31 26 23 16 20 26 50 30 46 48 38 46 45 13 11 12 16 21 33 35 35 35 32 31 31 31 34 35 38 38 34 30 29 28 28 28 28 27 27 25 26 29 30
36 34 41 18 36 28 24 29 28 32 60 69 59 43 18 17 18 21 27 34 34 32 32 31 32 33 32 30 34 37 38 40 33 28 28 29 29 29 28 26 25 24 25 26
44 43 40 48 39 36 47 37 32 37 68 52 45 33 24 23 27 30 34 35 31 32 31 31 37 34 26 28 31 38 38 40 41 32 31 31 29 31 30 27 25 23 23 25
45 50 40 38 37 37 40 41 39 40 40 51 41 31 25 22 30 33 38 33 31 32 32 36 33 28 27 28 30 38 41 42 41 38 32 33 30 30 30 30 26 23 23 23
42 66 53 59 42 41 43 37 36 36 35 29 24 32 21 26 37 40 34 35 35 33 32 33 31 30 31 30 34 41 46 47 44 44 36 33 32 31 33 31 27 26 27 24
56 62 71 74 42 40 50 31 24 25 24 25 38 35 33 47 44 38 37 37 34 31 33 34 35 35 35 35 34 39 42 43 47 47 38 33 31 34 33 31 30 32 31 25
57 58 79 83 57 73 30 22 24 31 28 28 33 42 51 48 40 37 33 30 32 35 37 35 35 37 38 37 37 38 45 47 50 45 36 35 32 33 33 32 33 30 29 28
48 61 79 78 58 41 30 22 26 34 39 34 40 46 41 40 44 41 30 31 36 38 37 36 35 37 34 35 36 44 50 50 52 46 39 39 34 35 35 37 35 31 29 29
48 54 73 59 85 86 34 26 26 41 60 44 44 47 50 52 83 53 39 38 40 37 37 39 38 35 32 32 35 52 54 54 51 43 38 38 35 35 37 39 39 34 31 30
45 53 87 72 82 60 30 27 36 62 54 42 44 51 55 61 55 46 43 42 39 38 38 37 37 38 36 33 40 57 57 53 43 38 33 33 40 36 35 38 36 36 32 31
59 64 59 56 74 69 33 37 53 48 47 46 52 51 52 49 47 44 40 42 43 43 41 37 39 39 38 38 51 68 58 45 38 36 37 36 40 37 32 38 38 33 34 34
61 46 58 60 56 35 33 40 43 48 57 73 68 53 46 47 45 43 45 42 43 42 42 40 40 42 40 42 69 65 50 41 36 38 42 45 40 39 36 38 38 33 35 36
37 37 65 68 48 39 37 41 45 54 64 62 55 47 46 48 45 45 47 48 46 45 44 43 44 45 44 52 68 59 52 39 33 38 48 52 41 39 32 34 32 33 35 36
44 46 51 54 45 48 51 59 64 57 53 52 44 41 45 46 47 45 50 49 48 47 47 48 49 49 49 54 72 67 51 37 35 36 52 51 42 36 34 34 31 32 31 32
45 47 63 72 55 94 94 68 52 54 51 45 46 46 42 43 47 46 51 49 50 50 50 52 49 47 46 53 76 80 59 40 36 39 55 64 38 37 39 36 35 58 52 60

GFSCGP_sfc_rhum_021.txt.gz
RH
16 16 13 10 12 10 12 12 12 10 10 12 13 14 13 12 11 12 11 9 8 7 7 7 7 6 6 9 11 14 18 22 30 33 29 28 31 29 29 27 24 26 28 30
17 20 17 14 16 16 15 16 17 14 12 14 16 17 15 13 13 12 11 9 9 10 10 14 14 15 15 11 12 13 15 19 26 34 32 28 28 29 30 33 30 30 29 30
19 17 18 17 18 18 17 18 18 18 17 16 17 16 12 8 10 10 14 17 18 18 18 17 18 20 20 20 20 17 16 16 21 32 35 35 30 34 36 35 35 33 29 32
19 17 19 21 20 18 23 20 22 22 24 22 15 23 16 10 11 17 19 19 17 17 16 18 19 21 20 22 24 25 21 18 19 26 36 41 40 40 36 36 36 34 29 29
16 18 22 23 19 19 23 22 24 25 25 26 22 22 12 12 15 18 20 19 16 14 15 16 17 20 20 22 25 25 26 24 22 19 34 44 44 38 35 33 36 34 32 30
20 17 20 22 21 21 22 24 22 22 26 34 17 18 14 13 16 22 20 20 19 15 14 16 17 17 18 23 28 30 27 29 29 31 28 43 46 42 37 36 36 37 34 33
19 20 20 25 27 23 25 24 24 22 38 30 14 17 14 12 22 22 18 16 14 14 16 19 20 20 21 27 29 27 31 34 28 27 30 30 45 43 39 36 34 37 35 36
33 26 24 21 27 34 30 27 28 30 20 18 20 24 12 13 17 14 12 10 10 16 21 22 22 24 23 25 27 27 28 31 30 27 29 28 33 42 40 37 33 34 35 34
32 27 21 16 26 24 22 25 29 40 28 29 20 14 10 9 14 12 10 10 12 16 22 24 23 24 23 24 26 28 29 31 31 27 25 26 26 34 42 39 33 34 32 32
27 25 15 24 17 20 23 15 22 21 26 21 10 13 14 18 16 13 13 13 13 19 21 23 23 24 24 24 25 26 28 30 32 30 26 26 27 26 33 37 35 35 32 34
23 20 19 22 16 16 16 17 20 24 29 32 33 24 12 17 16 17 14 12 14 23 24 24 23 21 24 24 26 24 26 30 33 35 31 28 27 26 26 30 34 33 33 32
23 24 19 18 14 13 16 19 29 39 41 34 43 44 15 16 16 15 13 15 19 24 24 23 22 21 22 26 24 22 23 30 35 37 36 30 27 28 28 27 29 28 31 32
27 25 33 20 29 26 30 29 23 29 48 62 55 42 19 17 14 13 14 17 22 23 24 23 22 23 24 22 21 22 22 30 34 36 39 35 29 29 28 28 27 26 27 28
39 33 32 38 32 29 35 30 28 30 57 42 38 30 22 17 16 15 18 20 24 25 25 25 27 24 24 22 21 22 24 30 37 40 41 44 33 31 30 29 28 26 25 27
36 42 32 29 30 31 33 33 31 33 32 40 33 28 21 15 16 19 21 25 27 27 24 24 25 26 25 25 25 27 29 31 36 45 44 46 40 33 30 30 30 26 26 25
34 54 46 50 36 34 37 31 30 29 28 25 21 22 14 16 18 24 27 28 28 27 27 24 25 27 27 26 28 32 32 30 34 46 52 50 48 37 37 33 30 30 30 26
46 52 58 63 34 35 44 29 24 21 20 22 29 26 21 26 31 31 33 31 30 29 28 29 29 29 30 30 30 31 28 29 41 45 48 53 44 45 36 34 33 37 34 28
46 44 51 71 52 65 26 20 20 22 22 23 24 27 30 35 34 31 29 31 32 32 32 32 30 31 31 30 31 30 26 29 38 41 46 48 42 44 43 36 37 35 32 32
33 45 63 71 56 39 29 22 27 32 35 29 32 43 40 35 38 37 29 28 31 32 30 28 27 29 29 30 29 31 31 32 39 42 45 43 40 42 48 47 40 36 33 33
28 31 57 59 84 80 32 26 24 31 54 37 49 50 46 46 77 55 33 31 30 28 28 30 30 29 29 29 29 34 36 37 41 45 49 47 41 41 41 48 44 39 35 34
34 40 64 65 77 52 26 24 31 69 56 43 42 48 53 68 66 50 36 32 29 30 31 31 33 33 32 30 31 35 36 42 48 48 45 44 39 36 38 52 48 41 37 35
52 58 52 44 63 63 22 28 42 41 41 50 48 50 60 65 63 53 40 37 35 35 34 34 36 36 33 32 32 35 38 49 49 51 51 43 35 34 33 64 67 38 38 37
48 35 50 49 51 30 29 33 34 40 46 54 61 63 66 62 51 38 41 38 36 35 36 35 37 39 38 36 35 37 43 51 55 55 50 37 34 35 38 60 77 43 38 38
29 26 47 49 36 31 29 28 32 48 57 57 51 50 51 53 50 51 44 39 37 38 38 38 40 41 42 40 39 36 42 56 60 59 45 34 42 45 44 51 62 49 38 37
38 37 39 41 34 31 33 37 47 52 50 50 48 48 51 52 55 52 47 42 40 40 41 42 44 46 46 43 40 37 43 68 72 61 45 36 48 44 48 52 66 44 32 35
39 39 44 50 32 47 50 50 55 55 53 58 58 55 49 47 51 43 43 42 42 44 44 48 48 49 48 46 44 43 47 78 78 72 54 54 70 67 50 60 61 67 53 60

GFSCGP_sfc_rhum_024.txt.gz
RH
27 28 26 21 21 17 16 16 17 16 15 19 24 22 18 16 18 21 22 20 22 21 20 20 22 22 22 24 26 29 27 23 40 47 48 50 49 46 47 45 37 37 43 46
23 32 22 18 18 21 21 22 23 20 19 19 23 23 19 17 22 25 25 24 22 20 20 20 22 23 24 25 27 26 29 30 28 49 47 41 40 45 47 51 44 41 40 44
26 21 18 17 21 21 22 23 25 27 24 22 25 27 27 24 25 21 20 19 18 18 18 19 20 22 23 26 29 27 28 30 31 30 52 54 49 51 56 49 44 44 41 44
23 18 18 24 22 20 29 23 25 28 32 37 23 40 27 26 27 23 22 22 21 19 18 20 22 23 21 24 32 30 29 30 30 34 37 53 49 47 45 46 47 51 44 42
24 21 25 27 22 22 27 27 30 32 34 35 33 41 26 25 31 28 27 23 16 18 22 24 24 24 23 25 37 33 30 34 38 39 37 41 49 50 50 46 52 46 44 40
23 18 22 25 24 24 24 30 28 27 31 48 30 33 28 28 30 22 16 13 12 16 23 25 25 25 26 27 39 38 34 38 42 46 42 38 40 52 53 54 50 51 47 43
27 22 24 25 26 30 32 36 44 42 59 53 23 28 28 28 18 15 14 14 14 14 22 25 25 28 29 32 32 36 37 41 35 40 46 39 36 40 53 50 47 53 49 47
36 34 26 20 27 34 31 35 45 48 39 43 27 36 30 18 14 14 15 16 16 16 24 27 29 29 27 28 29 32 36 39 35 35 46 41 34 38 45 51 49 46 48 44
34 30 21 18 24 26 29 36 28 41 34 41 33 23 22 17 16 18 17 16 18 18 26 28 29 29 28 25 28 28 34 32 31 32 38 42 37 34 42 51 48 48 43 43
26 30 14 22 22 20 27 23 32 32 38 38 22 22 23 24 22 21 19 17 15 17 23 24 23 24 24 23 25 29 30 28 26 30 36 41 42 35 34 37 50 48 49 43
25 27 23 18 22 20 25 23 22 26 27 38 49 37 22 22 24 22 19 15 17 25 27 26 25 26 24 24 26 27 24 28 28 33 39 42 42 41 34 34 48 47 45 42
25 33 28 20 17 20 22 20 22 55 52 50 61 51 21 22 21 20 18 15 20 27 29 28 28 25 25 27 27 26 26 26 29 42 42 42 43 46 39 36 37 42 45 41
34 31 42 30 35 29 31 29 32 32 57 62 68 53 23 22 21 19 18 21 24 26 28 28 27 25 29 27 27 27 27 30 34 40 46 49 48 51 44 36 36 34 37 37
40 39 34 52 43 35 38 33 30 33 60 50 47 40 29 25 24 20 22 24 29 29 28 27 30 30 29 28 28 28 29 35 36 36 42 60 59 58 52 46 37 36 32 34
44 50 37 36 35 36 38 38 35 37 37 48 41 36 29 23 19 21 20 28 31 32 31 30 35 33 30 31 32 32 33 35 34 33 39 63 69 59 53 58 45 36 35 32
40 58 50 57 41 38 39 35 34 33 32 31 27 28 20 21 19 22 33 33 35 33 38 34 33 32 32 32 34 33 33 35 34 31 33 46 70 64 61 66 70 47 39 36
47 61 69 76 40 44 58 35 29 28 26 28 37 34 28 39 45 42 42 38 35 42 38 34 34 33 32 32 31 33 32 31 34 33 33 38 53 61 56 65 75 77 60 40
48 53 63 77 60 81 38 27 27 33 30 32 33 41 58 57 51 44 39 37 36 39 36 34 32 33 33 33 34 33 33 34 37 36 36 37 52 54 51 56 78 82 82 43
38 52 76 86 72 52 40 32 37 38 41 37 48 50 46 43 49 48 39 41 48 43 38 33 32 33 33 34 34 36 36 38 39 38 37 50 52 51 51 56 78 84 87 64
34 41 61 63 86 90 41 34 28 41 62 40 42 46 51 57 84 65 49 52 54 50 39 36 34 33 34 36 37 40 42 41 41 38 54 53 52 54 55 51 59 83 86 82
45 57 71 71 76 62 37 33 33 58 58 39 38 46 59 76 74 60 55 58 53 45 38 37 36 36 35 36 39 44 44 45 41 41 52 56 57 58 55 48 46 82 88 88
65 76 72 65 75 74 34 34 47 40 39 40 56 64 70 67 63 58 58 59 54 53 49 43 40 39 36 38 40 44 47 44 42 45 52 60 59 56 51 43 54 74 88 92
64 43 72 62 66 35 31 34 35 36 51 59 63 60 61 62 61 62 62 56 52 54 53 46 43 41 39 41 44 49 48 46 45 46 53 64 64 58 48 38 62 69 84 89
35 35 53 54 44 36 34 31 33 40 54 58 57 58 61 71 64 60 57 56 53 49 54 45 42 44 46 46 46 49 47 46 48 50 59 68 70 64 48 48 52 77 83 86
44 42 47 48 41 39 37 37 53 61 58 59 58 59 57 59 59 54 52 48 45 44 45 45 47 50 50 50 52 54 52 53 54 54 69 76 70 60 62 56 70 78 83 77
48 48 56 60 36 46 53 52 54 58 60 58 56 54 49 46 50 48 51 49 48 49 49 52 52 52 52 49 54 52 54 55 59 62 81 80 78 71 72 74 78 80 85 84

GFSCGP_sfc_rhum_027.txt.gz
RH
33 32 32 31 28 25 25 27 27 26 22 28 29 29 21 26 30 26 24 23 23 24 23 22 22 21 22 27 28 28 31 33 35 35 37 60 55 47 49 44 39 40 44 47
31 35 26 27 26 26 26 30 33 30 28 26 30 29 31 25 26 24 23 23 23 24 25 24 24 24 24 29 30 28 27 32 41 43 43 44 49 52 42 45 43 42 40 46
34 31 23 24 29 27 31 34 36 37 35 32 32 35 39 28 24 22 24 23 24 28 29 27 27 27 26 26 36 31 28 30 36 43 50 40 37 48 57 59 54 48 40 46
30 24 25 33 31 30 36 34 34 37 43 43 33 54 39 34 31 30 25 24 29 32 29 28 28 30 29 29 32 38 33 36 32 38 43 55 57 48 46 54 47 49 44 42
30 30 34 35 35 32 34 34 38 41 49 59 44 51 50 37 28 20 17 16 21 31 31 32 32 32 33 34 34 35 41 41 43 41 43 51 57 57 47 49 53 50 56 44
33 26 28 34 29 30 31 38 32 39 49 55 38 45 48 41 25 21 21 19 18 20 31 30 32 32 34 37 37 41 42 44 46 47 47 45 49 50 49 43 60 61 52 53
37 34 33 22 32 36 34 43 58 44 61 59 33 33 43 22 21 21 22 21 20 20 33 33 35 34 33 36 31 34 37 45 46 43 44 42 50 53 50 46 45 66 60 53
43 41 36 20 36 41 41 42 60 63 64 62 34 38 40 20 21 22 21 21 20 21 32 34 34 34 35 32 29 34 30 45 39 39 40 41 56 58 52 49 44 42 58 51
56 44 22 29 30 31 37 39 32 44 50 57 51 35 27 24 26 24 23 22 22 21 30 32 31 31 34 32 31 34 41 36 30 36 37 42 55 56 52 50 46 44 45 52
36 36 24 29 28 27 32 29 40 42 43 49 38 33 43 31 31 26 23 21 22 26 34 33 33 32 31 27 27 36 34 34 33 33 32 44 56 55 53 52 52 45 40 56
31 35 27 20 27 29 29 30 30 34 38 49 59 50 32 36 30 26 22 21 22 31 35 35 33 33 33 32 35 35 35 36 34 31 38 55 54 56 56 55 54 46 43 47
36 42 43 26 26 26 26 27 28 60 52 63 85 58 32 30 26 24 23 21 25 35 36 36 34 32 35 35 36 35 35 34 36 43 45 45 45 53 64 66 55 52 49 38
44 39 56 30 43 34 36 33 36 43 72 77 80 47 27 26 26 24 23 25 31 34 38 38 36 36 38 37 37 36 38 40 40 42 45 44 43 57 72 72 58 53 54 45
42 53 42 51 48 48 52 46 42 46 91 58 53 45 33 30 28 26 27 30 38 39 38 39 44 45 44 40 39 36 42 40 38 34 44 40 46 72 72 68 62 59 60 57
53 67 55 50 47 48 49 49 46 50 47 60 46 43 34 30 33 42 44 42 42 39 35 41 42 44 41 36 36 43 37 33 33 37 37 41 51 57 77 77 65 65 61 65
48 64 62 64 53 51 54 46 45 46 44 42 39 40 32 35 59 54 52 47 45 41 37 42 42 36 35 34 38 32 33 35 35 34 37 39 43 49 46 70 74 67 70 69
56 72 81 88 58 58 72 52 43 40 37 41 45 38 57 60 53 49 47 47 45 42 51 54 47 39 36 38 32 36 35 35 40 38 36 41 40 41 62 80 76 67 79 85
59 66 78 90 76 82 44 38 37 43 40 41 42 49 61 56 44 42 45 47 46 52 53 51 50 47 40 37 36 34 35 44 40 41 43 38 40 54 61 68 66 67 80 87
51 66 88 90 95 63 53 42 48 52 51 43 51 50 39 35 41 51 44 44 54 53 52 53 53 50 40 38 36 38 37 44 45 44 42 43 51 57 64 66 70 68 74 80
49 56 75 84 88 92 54 45 38 45 54 46 45 42 51 70 89 67 53 55 54 52 53 54 52 48 44 40 38 40 43 42 47 43 48 44 43 57 64 64 63 67 72 73
57 68 77 80 91 77 50 42 44 64 52 41 43 70 72 79 74 60 56 57 53 54 55 52 51 49 46 43 43 44 42 45 44 49 46 48 46 56 56 59 59 67 70 67
68 83 86 86 92 83 44 44 55 47 45 46 66 70 73 68 64 61 61 64 61 56 54 52 51 49 48 47 44 44 44 44 50 52 51 48 52 49 52 64 65 64 67 71
73 59 79 72 70 49 43 43 46 50 66 73 73 65 65 68 67 63 61 57 53 49 46 44 44 44 42 45 43 48 53 51 54 56 57 55 52 55 57 68 71 67 63 74
52 46 65 62 54 47 41 35 50 69 72 63 60 62 62 66 59 55 51 50 50 49 49 47 47 48 48 46 45 47 46 52 54 58 58 56 57 61 65 69 62 68 70 77
57 55 57 64 50 51 47 58 69 67 61 57 55 55 56 57 58 58 60 60 59 58 57 56 60 65 62 55 53 50 50 56 58 57 59 63 64 66 74 73 68 70 75 76
59 60 79 65 55 62 67 70 67 63 59 53 55 61 61 62 67 65 67 64 64 68 72 70 73 80 80 70 66 61 58 57 52 57 63 71 68 81 81 84 80 72 83 81

GFSCGP_sfc_rhum_030.txt.gz
RH
38 34 33 30 26 27 29 31 33 31 28 31 35 39 32 26 26 28 30 31 32 32 30 30 29 29 30 33 38 34 35 42 42 41 41 43 48 54 52 48 45 42 42 47
31 35 29 25 30 33 35 37 37 34 32 32 33 40 32 27 30 29 31 34 35 34 33 32 33 32 33 34 39 38 38 43 47 56 59 57 53 60 55 56 51 45 42 48
36 31 27 28 34 32 35 36 41 38 39 36 38 49 37 31 24 21 27 32 35 35 35 35 37 37 37 38 39 36 42 42 45 49 58 49 51 52 59 53 56 53 49 43
33 27 29 37 35 35 40 38 39 40 46 47 37 54 49 38 24 20 20 26 37 36 34 35 35 35 39 39 36 39 40 42 40 47 55 62 65 64 60 60 65 56 55 49
31 33 36 38 37 37 36 39 40 44 51 62 52 58 65 31 26 24 22 21 22 37 37 36 35 34 35 38 36 39 41 38 48 47 50 58 59 68 65 60 56 58 62 58
38 31 33 37 32 36 31 34 37 54 58 61 45 54 58 34 26 27 25 22 21 22 36 38 36 33 36 37 34 37 39 42 48 47 43 44 46 58 68 66 64 62 58 71
39 38 34 26 32 34 35 48 49 41 58 48 41 40 49 25 25 26 24 22 22 22 34 35 34 34 36 35 34 32 40 43 45 42 42 42 45 59 68 68 70 64 57 54
51 37 30 25 37 38 43 46 50 35 53 58 44 40 32 25 24 26 25 23 22 22 30 34 32 34 35 34 34 37 40 41 39 38 40 41 44 66 70 68 66 67 64 56
44 38 25 29 29 30 34 42 43 44 54 57 52 35 26 28 30 31 28 26 28 25 30 34 34 34 35 36 34 36 38 37 38 38 36 40 46 63 64 61 61 71 67 55
40 31 26 25 29 25 30 33 46 46 38 43 41 43 43 34 37 33 27 29 28 26 33 36 37 37 37 37 36 39 38 39 39 40 40 35 47 54 55 57 66 68 68 60
36 37 24 24 30 31 30 30 34 37 44 44 54 42 36 36 38 31 28 25 26 32 40 40 38 36 35 37 38 38 38 37 36 40 42 48 46 45 52 53 52 71 66 65
44 45 47 28 22 26 28 31 35 54 42 65 82 65 32 38 29 26 28 27 29 37 40 41 40 41 40 40 40 41 41 42 43 44 48 52 41 44 53 45 54 68 68 66
38 38 42 26 42 36 40 39 40 49 78 79 78 46 32 26 27 28 33 34 38 40 43 43 42 45 45 45 44 42 40 43 46 48 46 42 45 50 43 43 64 62 66 71
40 48 31 42 39 53 56 48 50 51 90 59 53 39 32 32 33 34 47 48 49 47 45 43 40 50 51 49 45 43 43 46 46 41 38 46 44 43 44 50 58 68 62 74
53 65 62 54 52 54 53 55 53 59 54 68 46 48 39 35 36 49 55 54 49 46 42 39 41 51 51 48 44 42 46 42 38 39 44 41 46 45 55 68 62 57 69 68
56 61 70 72 56 57 62 56 56 54 50 49 47 49 36 35 59 63 57 50 40 38 40 41 45 47 44 44 43 40 39 41 38 39 41 44 42 48 62 48 57 84 77 69
58 72 82 86 65 66 65 58 53 47 42 46 51 40 42 57 57 45 37 36 36 44 45 44 48 45 46 49 48 44 40 39 37 39 40 42 45 49 49 55 79 78 78 81
64 71 84 91 74 60 34 44 43 46 42 46 47 51 57 55 39 40 44 45 47 51 50 49 50 51 52 54 55 48 42 40 39 39 42 42 46 45 63 59 63 84 83 80
55 69 89 88 95 62 46 46 46 50 47 44 50 52 42 42 64 57 44 49 52 52 53 57 55 58 54 52 49 49 46 44 44 43 44 44 45 54 53 55 72 81 79 74
58 62 72 88 87 86 44 46 42 47 58 51 51 50 61 75 91 66 52 54 55 53 54 57 55 52 51 50 49 51 49 50 50 46 44 42 50 56 57 53 72 71 68 70
75 80 80 86 93 77 52 44 46 62 61 47 57 75 76 83 72 60 58 56 53 51 49 45 45 46 44 42 44 48 49 52 46 52 44 49 54 58 57 68 56 57 65 72
70 83 89 88 94 86 52 47 48 47 57 63 75 76 73 66 66 63 58 54 52 53 52 50 52 51 48 45 44 46 49 46 46 45 60 56 62 60 52 55 53 58 70 82
70 50 75 74 72 49 46 46 47 65 77 78 81 68 70 70 60 59 62 60 60 60 60 57 58 58 55 52 50 53 60 54 50 52 50 60 64 59 56 57 60 68 78 80
57 54 70 59 54 47 43 46 57 72 74 71 71 69 61 67 68 70 70 68 64 57 56 58 64 75 91 87 81 80 79 72 64 55 57 63 64 62 60 63 63 75 81 81
57 54 59 62 47 49 53 54 72 73 71 66 60 65 70 72 75 68 61 60 59 60 61 68 72 86 94 93 94 94 91 82 81 71 64 66 59 58 72 69 64 73 80 79
57 58 71 56 51 57 61 61 72 75 62 62 72 73 70 71 65 61 63 64 64 69 75 88 94 95 94 95 95 95 91 76 76 89 66 57 60 68 76 74 79 75 74 75

GFSCGP_sfc_rhum_036.txt.gz
RH
38 36 32 32 34 32 31 35 37 35 35 40 43 40 38 37 38 38 41 41 39 36 35 36 37 36 36 37 42 44 45 52 56 58 61 59 63 66 63 63 58 57 56 57
34 37 33 32 33 36 38 43 41 38 39 38 43 42 38 37 40 40 41 43 41 38 35 35 37 37 36 34 38 42 44 49 52 58 63 64 65 63 72 66 58 57 54 55
41 36 32 31 39 37 40 41 43 41 45 40 40 48 36 28 28 31 35 39 39 40 38 36 38 39 38 35 37 38 43 45 49 51 57 58 57 57 64 67 68 65 60 59
40 31 34 37 37 40 45 39 43 46 52 46 45 50 49 32 26 26 24 25 29 38 38 36 36 36 39 36 36 37 40 41 42 46 50 50 57 57 65 72 76 69 63 62
35 36 38 42 40 42 40 42 47 52 55 65 59 64 63 31 30 28 26 26 27 25 28 37 37 36 36 38 39 38 41 41 41 45 46 52 51 56 63 69 73 72 67 65
46 39 37 41 38 38 36 39 45 63 62 53 51 58 55 37 29 29 30 27 27 26 25 26 36 36 36 38 40 42 41 44 42 44 44 46 49 50 56 62 76 76 74 71
34 42 31 34 36 33 38 32 30 26 46 43 51 56 48 37 28 28 30 30 27 29 29 29 36 38 38 39 39 40 40 45 43 42 43 44 46 50 53 63 76 76 74 72
39 35 34 31 40 42 48 44 38 22 28 39 52 49 37 27 26 27 30 34 31 32 32 33 36 40 41 39 40 41 42 44 44 44 45 47 49 58 58 65 69 73 75 71
33 23 25 27 28 31 41 41 47 44 57 51 46 43 35 32 31 32 37 34 36 35 34 33 38 41 42 42 42 42 42 42 42 42 43 45 47 51 57 57 64 68 68 62
40 17 30 27 31 27 33 33 40 47 33 34 36 37 37 37 36 36 38 37 36 36 38 39 42 43 43 42 42 45 43 43 40 42 44 42 47 50 54 59 61 64 65 66
38 27 20 27 33 35 27 38 43 44 46 42 48 35 33 30 33 39 37 36 36 39 45 48 46 45 44 45 45 39 39 42 42 44 43 45 45 48 51 54 54 58 61 65
46 37 30 21 25 32 35 35 35 54 40 63 77 60 39 36 37 35 37 37 38 45 52 52 46 41 44 42 40 39 38 42 42 43 43 40 42 44 51 53 52 56 58 58
37 31 34 20 33 42 44 43 49 64 77 78 71 39 38 45 43 38 41 41 42 53 55 49 50 49 46 41 39 39 39 43 39 43 42 44 46 47 47 48 48 51 52 50
37 38 30 46 36 47 49 50 52 54 88 64 55 32 29 38 38 39 41 44 52 57 53 52 46 42 40 39 38 39 42 39 46 45 44 49 49 48 46 47 50 51 50 57
45 52 56 53 45 42 42 38 54 60 57 50 24 40 28 31 39 44 45 55 52 44 42 44 46 44 40 43 44 44 46 47 46 49 52 54 50 47 46 51 54 52 53 55
61 55 76 60 64 66 67 57 56 50 48 54 49 50 35 37 51 50 54 55 47 51 50 47 41 42 48 47 46 46 47 48 48 50 52 51 54 52 50 54 56 57 57 58
66 73 80 62 68 58 45 38 55 61 60 52 56 41 50 54 52 55 52 58 58 56 52 44 49 50 49 48 47 50 48 46 46 47 47 48 49 52 53 51 50 57 63 68
74 72 82 85 66 51 34 46 46 50 53 55 54 55 57 56 56 55 66 66 64 53 50 54 52 51 52 54 56 54 54 54 54 54 50 47 46 48 50 50 53 62 68 78
64 71 85 81 88 54 34 48 50 56 49 48 52 52 49 56 77 72 54 57 55 58 55 53 55 59 59 58 52 50 52 53 57 59 58 56 52 49 50 53 62 65 70 79
66 66 65 90 78 68 38 49 45 45 52 48 51 53 58 80 90 56 58 59 59 56 59 63 61 57 56 54 52 56 62 63 66 64 69 69 67 68 59 57 58 64 61 66
78 81 81 89 92 74 50 49 47 53 46 58 50 59 78 89 81 62 64 60 62 64 65 58 59 63 61 57 62 76 85 88 80 82 91 88 92 82 79 70 60 61 74 67
80 88 93 90 96 81 55 57 51 48 55 53 65 73 81 80 78 71 67 71 71 69 65 62 65 63 63 65 76 92 95 93 91 91 93 90 95 85 77 75 66 68 74 84
67 56 80 75 72 50 50 47 51 54 55 72 80 76 79 80 73 74 77 75 70 69 66 60 63 67 65 70 77 88 86 92 95 95 95 85 84 93 75 84 74 77 75 80
59 54 67 62 53 44 43 45 49 61 70 75 77 76 71 78 80 82 78 74 73 69 65 64 67 75 73 74 78 78 82 93 95 96 96 85 78 78 71 73 72 76 78 79
56 60 61 68 45 42 42 51 52 62 74 75 65 69 76 83 83 83 77 74 67 68 63 69 75 82 82 80 83 71 83 95 95 95 96 94 72 77 79 82 75 64 60 72
70 62 66 52 37 42 48 57 62 71 76 63 70 77 79 81 83 80 77 68 64 66 68 75 79 84 86 83 80 79 87 95 96 95 95 96 91 79 84 81 79 72 72 73